Location: Pordenone
(45.9640°N, 12.6580°E)
Time: 02:42:50
(UTC+02:00)

ISS - Pass Details

Date: 19 May 2021
Orbit: 417 x 422 km, 51.6° (Epoch: 14 June)

Event Time Altitude Azimuth Distance (km) Brightness Sun altitude
Rises 02:07:04 0° 297° (WNW) 2,372 0.2 -22.8°
Reaches altitude 10° 02:09:10 10° 298° (WNW) 1,506 -0.8 -22.7°
Enters shadow 02:09:25 12° 298° (WNW) 1,404 -1.0 -22.7°
